When you browse on this site, cookies collect data to enhance your experience and personalize the content and advertising you see.
Visit our Privacy Policy to learn more. By continuing to use the site, you agree to this use of cookies and data.
  • en France
  • Liste des pays
  • À 7 jours
  • Température de l'eau
  • Carte météo
  • Widgets météo
  • user-avatar
    Se connecter

    Météo par heure à Odongk

    Ce jour, 9 Avril, Jeudi

    Heure Température Précipitation Vent Pression Humidité
    00:00 +29°C° 0.4 mm 3 m/s 757 mmHg 75%
    01:00 +29°C° 0 mm 2 m/s 757 mmHg 74%
    02:00 +29°C° 0.8 mm 2 m/s 756 mmHg 77%
    03:00 +28°C° 0.8 mm 2 m/s 756 mmHg 79%
    04:00 +27°C° 0.8 mm 3 m/s 756 mmHg 82%
    05:00 +28°C° 0.4 mm 2 m/s 756 mmHg 81%
    06:00 +28°C° 0.4 mm 2 m/s 757 mmHg 80%
    07:00 +29°C° 0 mm 3 m/s 757 mmHg 79%
    08:00 +30°C° 0 mm 3 m/s 758 mmHg 71%
    09:00 +33°C° 0 mm 3 m/s 758 mmHg 63%
    10:00 +35°C° 0 mm 3 m/s 758 mmHg 55%
    11:00 +36°C° 0.2 mm 3 m/s 757 mmHg 52%
    12:00 +37°C° 0.2 mm 3 m/s 756 mmHg 48%
    13:00 +38°C° 0.2 mm 3 m/s 755 mmHg 45%
    14:00 +38°C° 0.1 mm 2 m/s 755 mmHg 44%
    15:00 +38°C° 0.1 mm 2 m/s 754 mmHg 43%
    16:00 +38°C° 0.1 mm 2 m/s 754 mmHg 43%
    17:00 +36°C° 0.3 mm 2 m/s 754 mmHg 48%
    18:00 +35°C° 0.3 mm 2 m/s 754 mmHg 54%
    19:00 +32°C° 0.3 mm 2 m/s 755 mmHg 60%
    20:00 +31°C° 1.2 mm 2 m/s 756 mmHg 66%
    21:00 +30°C° 1.2 mm 2 m/s 756 mmHg 71%
    22:00 +29°C° 1.2 mm 2 m/s 757 mmHg 77%
    23:00 +29°C° 0.6 mm 2 m/s 757 mmHg 78%

    Demain, 10 Avril, Vendredi

    Heure Température Précipitation Vent Pression Humidité
    00:00 +29°C° 0.6 mm 2 m/s 757 mmHg 80%
    01:00 +28°C° 0.6 mm 2 m/s 756 mmHg 81%
    02:00 +28°C° 1.6 mm 2 m/s 756 mmHg 83%
    03:00 +28°C° 1.6 mm 2 m/s 756 mmHg 84%
    04:00 +28°C° 1.6 mm 2 m/s 756 mmHg 85%
    05:00 +28°C° 2.7 mm 2 m/s 756 mmHg 84%
    06:00 +28°C° 2.7 mm 2 m/s 757 mmHg 82%
    07:00 +29°C° 2.7 mm 2 m/s 757 mmHg 81%
    08:00 +29°C° 2 mm 2 m/s 758 mmHg 77%
    09:00 +30°C° 2 mm 2 m/s 758 mmHg 73%
    10:00 +31°C° 2 mm 2 m/s 758 mmHg 69%
    11:00 +32°C° 0.6 mm 2 m/s 758 mmHg 65%
    12:00 +32°C° 0.6 mm 2 m/s 757 mmHg 62%
    13:00 +34°C° 0.6 mm 2 m/s 756 mmHg 59%
    14:00 +34°C° 0 mm 2 m/s 755 mmHg 60%
    15:00 +34°C° 0 mm 2 m/s 755 mmHg 60%
    16:00 +32°C° 0 mm 2 m/s 755 mmHg 61%
    17:00 +32°C° 0 mm 2 m/s 755 mmHg 63%
    18:00 +31°C° 0 mm 1 m/s 755 mmHg 65%
    19:00 +31°C° 0 mm 1 m/s 755 mmHg 68%
    20:00 +30°C° 0 mm 1 m/s 756 mmHg 68%
    21:00 +30°C° 0 mm 1 m/s 757 mmHg 69%
    22:00 +30°C° 0 mm 2 m/s 757 mmHg 70%
    23:00 +30°C° 0.1 mm 2 m/s 757 mmHg 73%

    Après-demain, 11 Avril, Samedi

    Heure Température Précipitation Vent Pression Humidité
    00:00 +29°C° 0.1 mm 3 m/s 757 mmHg 76%
    01:00 +29°C° 0.1 mm 4 m/s 757 mmHg 79%
    02:00 +28°C° 0.2 mm 3 m/s 756 mmHg 80%
    03:00 +28°C° 0.2 mm 3 m/s 756 mmHg 80%
    04:00 +28°C° 0.2 mm 3 m/s 756 mmHg 80%
    05:00 +28°C° 0 mm 3 m/s 757 mmHg 79%
    06:00 +28°C° 0 mm 3 m/s 757 mmHg 78%
    07:00 +29°C° 0 mm 3 m/s 758 mmHg 76%
    08:00 +30°C° 0 mm 3 m/s 758 mmHg 71%
    09:00 +31°C° 0 mm 3 m/s 758 mmHg 66%
    10:00 +33°C° 0 mm 3 m/s 758 mmHg 60%
    11:00 +34°C° 0 mm 3 m/s 757 mmHg 57%
    12:00 +35°C° 0 mm 2 m/s 756 mmHg 53%
    13:00 +36°C° 0 mm 2 m/s 756 mmHg 50%
    14:00 +37°C° 0 mm 2 m/s 755 mmHg 49%
    15:00 +36°C° 0 mm 1 m/s 754 mmHg 48%
    16:00 +36°C° 0 mm 1 m/s 754 mmHg 47%
    17:00 +35°C° 0 mm 1 m/s 754 mmHg 50%
    18:00 +34°C° 0 mm 1 m/s 755 mmHg 52%
    19:00 +34°C° 0 mm 1 m/s 755 mmHg 55%
    20:00 +33°C° 0.2 mm 1 m/s 755 mmHg 57%
    21:00 +32°C° 0.2 mm 1 m/s 756 mmHg 60%
    22:00 +32°C° 0.2 mm 1 m/s 756 mmHg 62%
    23:00 +31°C° 0.4 mm 2 m/s 756 mmHg 66%

    12 Avril, Dimanche

    Heure Température Précipitation Vent Pression Humidité
    00:00 +30°C° 0.4 mm 2 m/s 756 mmHg 70%
    01:00 +29°C° 0.4 mm 3 m/s 756 mmHg 74%
    02:00 +29°C° 0 mm 3 m/s 756 mmHg 76%
    03:00 +29°C° 0 mm 3 m/s 755 mmHg 79%
    04:00 +29°C° 0 mm 3 m/s 755 mmHg 81%
    05:00 +29°C° 0.4 mm 3 m/s 756 mmHg 79%
    06:00 +29°C° 0.4 mm 3 m/s 756 mmHg 77%
    07:00 +29°C° 0.4 mm 4 m/s 757 mmHg 76%
    08:00 +32°C° 0 mm 4 m/s 757 mmHg 68%
    09:00 +33°C° 0 mm 4 m/s 757 mmHg 61%
    10:00 +35°C° 0 mm 4 m/s 757 mmHg 54%
    11:00 +36°C° 0 mm 3 m/s 756 mmHg 50%
    12:00 +37°C° 0 mm 2 m/s 756 mmHg 46%
    13:00 +38°C° 0 mm 2 m/s 755 mmHg 42%
    14:00 +38°C° 0 mm 2 m/s 754 mmHg 41%
    15:00 +38°C° 0 mm 2 m/s 754 mmHg 40%
    16:00 +39°C° 0 mm 2 m/s 753 mmHg 39%
    17:00 +37°C° 0 mm 3 m/s 753 mmHg 44%
    18:00 +36°C° 0 mm 3 m/s 754 mmHg 49%
    19:00 +35°C° 0 mm 4 m/s 754 mmHg 54%
    20:00 +33°C° 0.8 mm 3 m/s 755 mmHg 60%
    21:00 +31°C° 0.8 mm 3 m/s 755 mmHg 67%
    22:00 +30°C° 0.8 mm 3 m/s 756 mmHg 74%
    23:00 +29°C° 0.2 mm 3 m/s 756 mmHg 74%

    13 Avril, Lundi

    Heure Température Précipitation Vent Pression Humidité
    00:00 +29°C° 0.2 mm 2 m/s 756 mmHg 74%
    01:00 +28°C° 0.2 mm 2 m/s 756 mmHg 75%
    02:00 +28°C° 0 mm 2 m/s 756 mmHg 76%
    03:00 +28°C° 0 mm 1 m/s 755 mmHg 76%
    04:00 +26°C° 0 mm 0 m/s 755 mmHg 77%
    05:00 +28°C° 0 mm 1 m/s 755 mmHg 76%
    06:00 +28°C° 0 mm 1 m/s 756 mmHg 76%
    07:00 +28°C° 0 mm 2 m/s 757 mmHg 75%
    08:00 +30°C° 0 mm 2 m/s 757 mmHg 68%
    09:00 +31°C° 0 mm 3 m/s 757 mmHg 61%
    10:00 +34°C° 0 mm 3 m/s 757 mmHg 54%
    11:00 +35°C° 0 mm 3 m/s 756 mmHg 49%
    12:00 +36°C° 0 mm 4 m/s 756 mmHg 44%
    13:00 +38°C° 0 mm 4 m/s 755 mmHg 39%
    14:00 +38°C° 0 mm 4 m/s 754 mmHg 38%
    15:00 +38°C° 0 mm 4 m/s 754 mmHg 37%
    16:00 +38°C° 0 mm 3 m/s 753 mmHg 37%
    17:00 +37°C° 0.1 mm 3 m/s 754 mmHg 42%
    18:00 +35°C° 0.1 mm 3 m/s 754 mmHg 47%
    19:00 +34°C° 0.1 mm 3 m/s 755 mmHg 53%
    20:00 +33°C° 0.7 mm 3 m/s 755 mmHg 60%
    21:00 +30°C° 0.7 mm 3 m/s 756 mmHg 67%
    22:00 +29°C° 0.7 mm 3 m/s 757 mmHg 74%
    23:00 +29°C° 0.8 mm 2 m/s 757 mmHg 75%

    14 Avril, Mardi

    Heure Température Précipitation Vent Pression Humidité
    00:00 +29°C° 0.8 mm 2 m/s 756 mmHg 76%
    01:00 +29°C° 0.8 mm 2 m/s 756 mmHg 76%
    02:00 +29°C° 0.5 mm 2 m/s 756 mmHg 77%
    03:00 +28°C° 0.5 mm 2 m/s 756 mmHg 77%
    04:00 +28°C° 0.5 mm 1 m/s 755 mmHg 77%
    05:00 +28°C° 0.1 mm 2 m/s 756 mmHg 76%
    06:00 +28°C° 0.1 mm 2 m/s 756 mmHg 75%
    07:00 +28°C° 0.1 mm 3 m/s 757 mmHg 73%
    08:00 +28°C° 0.1 mm 3 m/s 757 mmHg 69%
    09:00 +29°C° 0.1 mm 2 m/s 757 mmHg 65%
    10:00 +30°C° 0.1 mm 2 m/s 758 mmHg 60%
    11:00 +31°C° 0 mm 3 m/s 757 mmHg 58%
    12:00 +33°C° 0 mm 3 m/s 756 mmHg 55%
    13:00 +34°C° 0 mm 3 m/s 756 mmHg 52%
    14:00 +34°C° 0 mm 4 m/s 755 mmHg 53%
    15:00 +34°C° 0 mm 4 m/s 755 mmHg 54%
    16:00 +33°C° 0 mm 5 m/s 755 mmHg 55%
    17:00 +32°C° 0.1 mm 4 m/s 755 mmHg 59%
    18:00 +30°C° 0.1 mm 4 m/s 755 mmHg 62%
    19:00 +29°C° 0.1 mm 4 m/s 756 mmHg 66%
    20:00 +29°C° 0.1 mm 3 m/s 756 mmHg 66%
    21:00 +29°C° 0.1 mm 2 m/s 757 mmHg 66%
    22:00 +29°C° 0.1 mm 1 m/s 758 mmHg 66%
    23:00 +29°C° 0 mm 1 m/s 757 mmHg 66%
    Voir plus